Volver al catálogo

STARLINK-38280

ActivoComunicacionesSSO
NORAD 100265·PAYLOAD·🇺🇸 United States

Lanzado Aug 8, 2026 desde Vandenberg Space Force Base

Loading…

Próximos Pases (próximas 24 horas)

TLE

ActualizadoSource: Space-Track

Época: Sep 14, 2026, 15:26 UTC

1 A0265U 26181V   26257.64357093  .00153888  00000-0  10137-2 0  9997
2 A0265  97.2829 301.0301 0002197  76.7503 283.4007 15.75198959  7030

Sigue STARLINK-38280 en tiempo real con AllMySat

Download on the App Store